Monett, MO

12:24 AM CDT on August 20, 2017 (GMT -0500)
Monett

Weather History for KHFJ - May, 2013

Change the Weather History Date:

Saturday, May 25, 2013

  Actual Average (KJLN) Record (KJLN)
Temperature  
Mean Temperature 66 °F -  
Max Temperature 80 °F 78 °F 92 °F (2006)
Min Temperature 53 °F 58 °F 44 °F (1979)
Cooling Degree Days 2    
Growing Degree Days 16 (Base 50)    
Moisture  
Dew Point 57 °F    
Average Humidity 69    
Maximum Humidity 94    
Minimum Humidity 54    
Precipitation  
Precipitation 0.04 in - - ()
Sea Level Pressure  
Sea Level Pressure 30.17 in    
Wind  
Wind Speed 9 mph (SSE)    
Max Wind Speed 13 mph    
Max Gust Speed 17 mph    
Visibility 10 miles    
Events Rain , Thunderstorm    
Averages and records for this station are not official NWS values.
T = Trace of Precipitation, MM = Missing Value Source: NWS Daily Summary

Daily Weather History Graph

Daily Weather History Graph

Search for Another Location

Airport or City:

Trip Planner

Search our weather history database for the weather conditions in past years. The results will help you decide how hot, cold, wet, or windy it might be!

Date:

Astronomy

May. 25, 2013 Rise Set
Actual Time 6:01 AM CDT 8:25 PM CDT
Civil Twilight 5:31 AM CDT 8:55 PM CDT
Nautical Twilight 4:54 AM CDT 9:31 PM CDT
Astronomical Twilight 4:14 AM CDT 10:12 PM CDT
Moon 9:14 PM CDT (5/25) 6:28 AM CDT (5/25)
Length of Visible Light 15h 23m
Length of Day
14h 24m
Full, 100% of the Moon is Illuminated
May 25
Full
May 31
Last Quarter
Jun 8
New
Jun 16
First Quarter
Jun 23
Full

Hourly Weather History & Observations

Time (CDT) Temp. Heat Index Dew Point Humidity Pressure Visibility Wind Dir Wind Speed Gust Speed Precip Events Conditions
12:15 AM 59.0 °F - 46.4 °F 63% 30.20 in 10.0 mi SE 8.1 mph - N/A   Clear
12:35 AM 59.0 °F - 46.4 °F 63% 30.21 in 10.0 mi SE 9.2 mph - N/A   Clear
12:55 AM 59.0 °F - 46.4 °F 63% 30.21 in 10.0 mi SE 9.2 mph - N/A   Clear
1:15 AM 59.0 °F - 46.4 °F 63% 30.21 in 10.0 mi SE 9.2 mph - N/A   Clear
1:35 AM 59.0 °F - 46.4 °F 63% 30.21 in 10.0 mi SE 10.4 mph - N/A   Clear
1:55 AM 57.2 °F - 46.4 °F 67% 30.21 in 10.0 mi SE 9.2 mph - N/A   Clear
2:15 AM 57.2 °F - 46.4 °F 67% 30.21 in 10.0 mi SE 9.2 mph - N/A   Clear
2:35 AM 55.4 °F - 46.4 °F 72% 30.20 in 10.0 mi SE 10.4 mph - N/A   Clear
2:55 AM 55.4 °F - 46.4 °F 72% 30.19 in 10.0 mi SE 11.5 mph - N/A   Clear
3:15 AM 55.4 °F - 46.4 °F 72% 30.19 in 10.0 mi SE 9.2 mph - N/A   Clear
3:35 AM 55.4 °F - 46.4 °F 72% 30.19 in 10.0 mi SE 10.4 mph - N/A   Clear
3:55 AM 55.4 °F - 46.4 °F 72% 30.19 in 10.0 mi SE 9.2 mph - N/A   Clear
4:15 AM 55.4 °F - 46.4 °F 72% 30.20 in 10.0 mi SE 9.2 mph - N/A   Clear
4:35 AM 55.4 °F - 46.4 °F 72% 30.20 in 10.0 mi SE 8.1 mph - N/A   Scattered Clouds
4:55 AM 55.4 °F - 46.4 °F 72% 30.20 in 10.0 mi ESE 9.2 mph - N/A   Scattered Clouds
5:15 AM 55.4 °F - 46.4 °F 72% 30.20 in 10.0 mi ESE 8.1 mph - N/A Thunderstorm Scattered Clouds
5:35 AM 55.4 °F - 46.4 °F 72% 30.23 in 10.0 mi SSE 8.1 mph - N/A Thunderstorm Thunderstorm
5:55 AM 57.2 °F - 48.2 °F 72% 30.23 in 10.0 mi South 5.8 mph - N/A   Overcast
6:15 AM 55.4 °F - 50.0 °F 82% 30.24 in 7.0 mi SE 8.1 mph - 0.02 in Rain , Thunderstorm Rain
6:35 AM 53.6 °F - 51.8 °F 94% 30.23 in 10.0 mi SE 8.1 mph - 0.04 in Rain Light Rain
6:55 AM 53.6 °F - 51.8 °F 94% 30.24 in 10.0 mi SE 6.9 mph - 0.04 in Thunderstorm Overcast
7:15 AM 55.4 °F - 51.8 °F 88% 30.24 in 10.0 mi ESE 5.8 mph - N/A Thunderstorm Overcast
7:35 AM 55.4 °F - 51.8 °F 88% 30.23 in 10.0 mi SE 10.4 mph - N/A Thunderstorm Overcast
7:55 AM 57.2 °F - 51.8 °F 82% 30.23 in 10.0 mi SE 10.4 mph - N/A   Mostly Cloudy
8:15 AM 57.2 °F - 51.8 °F 82% 30.23 in 10.0 mi SE 11.5 mph - N/A   Scattered Clouds
8:35 AM 59.0 °F - 51.8 °F 77% 30.22 in 10.0 mi SE 12.7 mph - N/A   Clear
8:55 AM 60.8 °F - 51.8 °F 72% 30.21 in 10.0 mi SE 9.2 mph - N/A   Clear
9:15 AM 62.6 °F - 53.6 °F 72% 30.21 in 10.0 mi SSE 11.5 mph - N/A   Clear
9:35 AM 64.4 °F - 55.4 °F 73% 30.20 in 10.0 mi SSE 10.4 mph - N/A   Clear
9:55 AM 68.0 °F - 55.4 °F 64% 30.20 in 10.0 mi South 10.4 mph - N/A   Clear
10:15 AM 69.8 °F - 55.4 °F 60% 30.20 in 10.0 mi SSE 11.5 mph - N/A   Clear
10:35 AM 69.8 °F - 59.0 °F 68% 30.20 in 10.0 mi South 9.2 mph - N/A   Clear
10:55 AM 71.6 °F - 59.0 °F 64% 30.19 in 10.0 mi SSE 10.4 mph - N/A   Clear
11:15 AM 71.6 °F - 59.0 °F 64% 30.19 in 10.0 mi South 9.2 mph - N/A   Clear
11:35 AM 73.4 °F - 60.8 °F 65% 30.19 in 10.0 mi South 6.9 mph - N/A   Clear
11:55 AM 73.4 °F - 62.6 °F 69% 30.20 in 10.0 mi SSE 9.2 mph - N/A   Clear
12:15 PM 75.2 °F - 62.6 °F 65% 30.20 in 10.0 mi South 6.9 mph - N/A   Clear
12:35 PM 77.0 °F - 62.6 °F 61% 30.19 in 10.0 mi South 9.2 mph - N/A   Clear
12:55 PM 77.0 °F - 62.6 °F 61% 30.19 in 10.0 mi South 9.2 mph - N/A   Clear
1:15 PM 77.0 °F - 62.6 °F 61% 30.19 in 10.0 mi SSW 10.4 mph - N/A   Clear
1:35 PM 78.8 °F - 62.6 °F 57% 30.19 in 10.0 mi South 9.2 mph - N/A   Clear
1:55 PM 78.8 °F - 62.6 °F 57% 30.18 in 10.0 mi South 10.4 mph - N/A   Clear
2:15 PM 78.8 °F - 62.6 °F 57% 30.18 in 10.0 mi SSW 9.2 mph - N/A   Clear
2:35 PM 80.6 °F 81.8 °F 62.6 °F 54% 30.17 in 10.0 mi South 9.2 mph - N/A   Clear
2:55 PM 80.6 °F 81.8 °F 62.6 °F 54% 30.16 in 10.0 mi SSE 10.4 mph - N/A   Clear
3:15 PM 80.6 °F 81.8 °F 62.6 °F 54% 30.16 in 10.0 mi SE 9.2 mph - N/A   Clear
3:35 PM 80.6 °F 81.8 °F 62.6 °F 54% 30.15 in 10.0 mi South 6.9 mph - N/A   Clear
3:55 PM 80.6 °F 81.8 °F 62.6 °F 54% 30.15 in 10.0 mi SSE 8.1 mph - N/A   Clear
4:15 PM 80.6 °F 81.8 °F 62.6 °F 54% 30.14 in 10.0 mi SSE 9.2 mph - N/A   Scattered Clouds
4:35 PM 80.6 °F 82.3 °F 64.4 °F 58% 30.13 in 10.0 mi South 12.7 mph - N/A   Clear
4:55 PM 80.6 °F 81.8 °F 62.6 °F 54% 30.13 in 10.0 mi South 11.5 mph - N/A   Clear
5:15 PM 80.6 °F 81.8 °F 62.6 °F 54% 30.12 in 10.0 mi South 10.4 mph - N/A   Clear
5:35 PM 80.6 °F 82.3 °F 64.4 °F 58% 30.12 in 10.0 mi South 11.5 mph - N/A   Scattered Clouds
5:55 PM 80.6 °F 81.8 °F 62.6 °F 54% 30.11 in 10.0 mi South 9.2 mph 17.3 mph N/A   Scattered Clouds
6:15 PM 80.6 °F 82.3 °F 64.4 °F 58% 30.10 in 10.0 mi South 10.4 mph - N/A   Mostly Cloudy
6:35 PM 78.8 °F - 62.6 °F 57% 30.09 in 10.0 mi South 9.2 mph - N/A   Mostly Cloudy
6:55 PM 78.8 °F - 62.6 °F 57% 30.09 in 10.0 mi SSW 9.2 mph - N/A   Scattered Clouds
7:15 PM 77.0 °F - 64.4 °F 65% 30.08 in 10.0 mi South 8.1 mph - N/A   Clear
7:35 PM 77.0 °F - 64.4 °F 65% 30.08 in 10.0 mi SSE 6.9 mph - N/A   Clear
7:55 PM 75.2 °F - 64.4 °F 69% 30.08 in 10.0 mi SSE 5.8 mph - N/A   Clear
8:15 PM 73.4 °F - 64.4 °F 73% 30.08 in 10.0 mi SSE 4.6 mph - N/A   Clear
8:35 PM 71.6 °F - 64.4 °F 78% 30.08 in 10.0 mi South 5.8 mph - N/A   Clear
8:55 PM 71.6 °F - 64.4 °F 78% 30.08 in 10.0 mi SSE 6.9 mph - N/A   Clear
9:15 PM 71.6 °F - 64.4 °F 78% 30.08 in 10.0 mi SSE 9.2 mph - N/A   Clear
9:35 PM 69.8 °F - 62.6 °F 78% 30.08 in 10.0 mi SSE 8.1 mph - N/A   Clear
9:55 PM 69.8 °F - 62.6 °F 78% 30.08 in 10.0 mi SSE 8.1 mph - N/A   Clear
10:15 PM 69.8 °F - 62.6 °F 78% 30.09 in 10.0 mi SE 6.9 mph - N/A   Clear
10:35 PM 69.8 °F - 62.6 °F 78% 30.11 in 10.0 mi SSE 6.9 mph - N/A   Clear
10:55 PM 68.0 °F - 62.6 °F 83% 30.12 in 10.0 mi SSE 4.6 mph - N/A   Clear
11:15 PM 68.0 °F - 62.6 °F 83% 30.12 in 10.0 mi SSE 5.8 mph - N/A   Clear
11:35 PM 68.0 °F - 62.6 °F 83% 30.12 in 10.0 mi SSE 5.8 mph - N/A   Clear
11:55 PM 68.0 °F - 62.6 °F 83% 30.13 in 10.0 mi SE 5.8 mph - N/A   Clear